< < Back
Terminal Aerodrome Forecast


Current Version              Previous Versions:   1  2  3  4  5  6  7  8  9  

Terminal Aerodrome Forecast

120
FTUS42 KTAE 251625 AAC
TAFTLH
TAF AMD
KTLH 251625Z 2516/2612 20010KT P6SM -RA VCTS BKN025CB BKN200
     FM251800 23015G22KT P6SM SCT030 SCT100
     FM252300 23010KT P6SM SCT040 SCT150
     FM260300 23007KT P6SM BKN015
     FM260600 24005KT P6SM BKN007=



Latest METAR

589
SAUS80 KWBC 261500 RRA
MTRTLH
METAR KTLH 261453Z COR 26007KT 10SM BKN090 26/20 A2979 RMK AO2 SLP087
T02610200 53008 $


USA.gov is the U.S. government's official web portal to all federal, state and local government web resources and services.